Quillayute, WA

11:18 PM PDT on June 22, 2017 (GMT -0700)
Quillayute

Weather History for KUIL - January, 2012

Change the Weather History Date:

Thursday, January 19, 2012

  Actual Average Record
Temperature  
Mean Temperature 32 °F 42 °F  
Max Temperature 34 °F 47 °F 62 °F (1981)
Min Temperature 29 °F 36 °F 18 °F (1984)
Degree Days  
Heating Degree Days 33 23  
Month to date heating degree days 449  
Since 1 July heating degree days 2927  
Cooling Degree Days 0 0  
Month to date cooling degree days 0  
Year to date cooling degree days 0  
Moisture  
Dew Point 29 °F    
Average Humidity 91    
Maximum Humidity 100    
Minimum Humidity 85    
Precipitation  
Precipitation 0.05 in 0.48 in 3.26 in (1968)
Month to date precipitation 9.24  
Year to date precipitation 9.24  
Sea Level Pressure  
Sea Level Pressure 29.63 in    
Wind  
Wind Speed 6 mph (ENE)    
Max Wind Speed 14 mph    
Max Gust Speed 20 mph    
Visibility 7 miles    
Events Rain    
T = Trace of Precipitation, MM = Missing Value Source: NWS Daily Summary

Daily Weather History Graph

Daily Weather History Graph

Search for Another Location

Airport or City:

Trip Planner

Search our weather history database for the weather conditions in past years. The results will help you decide how hot, cold, wet, or windy it might be!

Date:

Astronomy

Jan. 19, 2012 Rise Set
Actual Time 8:00 AM PST 4:58 PM PST
Civil Twilight 7:25 AM PST 5:32 PM PST
Nautical Twilight 6:47 AM PST 6:10 PM PST
Astronomical Twilight 6:10 AM PST 6:47 PM PST
Moon 4:48 AM PST (1/19) 1:30 PM PST (1/19)
Length of Visible Light 10h 07m
Length of Day
8h 57m
Waning Crescent, 15% of the Moon is Illuminated
Jan 19
Waning Crescent
Jan 22
New
Jan 30
First Quarter
Feb 7
Full
Feb 14
Last Quarter

Hourly Weather History & Observations

Time (PST) Temp. Windchill Dew Point Humidity Pressure Visibility Wind Dir Wind Speed Gust Speed Precip Events Conditions
12:02 AM 28.4 °F 24.6 °F 26.6 °F 93% 29.73 in 10.0 mi ENE 3.5 mph - N/A   Overcast
12:53 AM 28.9 °F 22.8 °F 27.0 °F 92% 29.72 in 6.0 mi ENE 5.8 mph - N/A   Overcast
1:53 AM 28.9 °F 23.9 °F 27.0 °F 92% 29.72 in 10.0 mi ENE 4.6 mph - N/A   Overcast
2:00 AM - - - N/A% - - North - - N/A   Unknown
2:53 AM 28.9 °F 21.9 °F 27.0 °F 92% 29.71 in 10.0 mi ENE 6.9 mph - N/A   Overcast
3:46 AM 28.4 °F 20.4 °F 26.6 °F 93% 29.68 in 10.0 mi NE 8.1 mph - N/A   Overcast
3:53 AM 28.9 °F 21.1 °F 26.1 °F 89% 29.70 in 10.0 mi NE 8.1 mph - N/A   Overcast
4:53 AM 28.9 °F 21.9 °F 26.1 °F 89% 29.66 in 10.0 mi ENE 6.9 mph - N/A   Overcast
5:49 AM 28.4 °F 21.2 °F 24.8 °F 86% 29.62 in 10.0 mi ENE 6.9 mph - N/A   Overcast
5:53 AM 28.9 °F 21.9 °F 25.0 °F 85% 29.63 in 10.0 mi ENE 6.9 mph - N/A   Overcast
6:07 AM 28.4 °F 19.7 °F 24.8 °F 86% 29.60 in 10.0 mi ENE 9.2 mph - N/A   Overcast
6:53 AM 28.9 °F 20.4 °F 25.0 °F 85% 29.57 in 10.0 mi NE 9.2 mph - 0.00 in   Overcast
7:53 AM 30.0 °F 20.5 °F 26.1 °F 85% 29.56 in 10.0 mi NE 11.5 mph - 0.00 in   Overcast
8:53 AM 30.0 °F 21.7 °F 27.0 °F 88% 29.55 in 10.0 mi NE 9.2 mph - 0.00 in   Overcast
9:53 AM 30.0 °F 22.4 °F 27.0 °F 88% 29.56 in 9.0 mi NE 8.1 mph - 0.00 in   Overcast
10:17 AM 30.2 °F 22.6 °F 28.4 °F 93% 29.55 in 7.0 mi NE 8.1 mph - 0.02 in Rain Light Freezing Rain
10:53 AM 30.9 °F 22.8 °F 28.0 °F 89% 29.55 in 10.0 mi NE 9.2 mph - 0.03 in Rain Light Freezing Rain
11:17 AM 30.2 °F 22.6 °F 28.4 °F 93% 29.54 in 10.0 mi ENE 8.1 mph - 0.00 in   Overcast
11:53 AM 32.0 °F 26.4 °F 28.0 °F 85% 29.54 in 10.0 mi ENE 5.8 mph - 0.00 in   Overcast
12:31 PM 32.0 °F 25.6 °F 28.4 °F 87% 29.52 in 10.0 mi ENE 6.9 mph - N/A   Overcast
12:53 PM 33.1 °F 27.7 °F 28.9 °F 85% 29.53 in 10.0 mi ENE 5.8 mph - N/A   Overcast
1:53 PM 33.1 °F 26.9 °F 28.9 °F 85% 29.53 in 10.0 mi ENE 6.9 mph - N/A   Overcast
2:36 PM 33.8 °F 28.6 °F 30.2 °F 87% 29.54 in 10.0 mi ENE 5.8 mph - N/A   Mostly Cloudy
2:53 PM 34.0 °F 29.8 °F 30.0 °F 85% 29.56 in 10.0 mi ENE 4.6 mph - N/A   Mostly Cloudy
3:36 PM 33.8 °F - 30.2 °F 87% 29.57 in 10.0 mi Calm Calm - N/A   Mostly Cloudy
3:53 PM 34.0 °F - 30.0 °F 85% 29.58 in 10.0 mi Calm Calm - N/A   Scattered Clouds
4:25 PM 33.8 °F 29.6 °F 30.2 °F 87% 29.59 in 10.0 mi East 4.6 mph - N/A   Mostly Cloudy
4:53 PM 33.1 °F 30.0 °F 30.0 °F 89% 29.61 in 10.0 mi East 3.5 mph - N/A   Overcast
5:53 PM 32.0 °F 27.5 °F 30.9 °F 96% 29.62 in 3.0 mi East 4.6 mph - N/A   Overcast
5:58 PM 32.0 °F 27.5 °F 30.2 °F 93% 29.61 in 2.0 mi East 4.6 mph - N/A   Overcast
6:06 PM 32.0 °F 27.5 °F 30.2 °F 93% 29.61 in 1.8 mi ENE 4.6 mph - N/A   Overcast
6:53 PM 33.1 °F - 32.0 °F 96% 29.64 in 1.5 mi Calm Calm - N/A   Overcast
7:04 PM 33.8 °F - 32.0 °F 93% 29.64 in 3.0 mi Calm Calm - N/A   Overcast
7:11 PM 33.8 °F - 32.0 °F 93% 29.64 in 2.5 mi Calm Calm - N/A   Overcast
7:31 PM 33.8 °F 29.6 °F 32.0 °F 93% 29.64 in 1.8 mi East 4.6 mph - N/A   Overcast
7:53 PM 33.1 °F 28.7 °F 32.0 °F 96% 29.66 in 1.5 mi East 4.6 mph - N/A   Overcast
8:26 PM 33.8 °F 29.6 °F 32.0 °F 93% 29.66 in 1.2 mi East 4.6 mph - N/A   Overcast
8:34 PM 33.8 °F 29.6 °F 32.0 °F 93% 29.66 in 1.5 mi East 4.6 mph - N/A   Overcast
8:53 PM 33.1 °F 28.7 °F 33.1 °F 100% 29.67 in 1.8 mi East 4.6 mph - N/A   Overcast
9:04 PM 33.8 °F 27.0 °F 32.0 °F 93% 29.66 in 2.5 mi East 8.1 mph - 0.01 in   Overcast
9:31 PM 33.8 °F - 32.0 °F 93% 29.68 in 3.0 mi Calm Calm - 0.01 in   Overcast
9:53 PM 33.1 °F - 32.0 °F 96% 29.70 in 1.8 mi Calm Calm - 0.01 in   Overcast
10:02 PM 33.8 °F - 32.0 °F 93% 29.69 in 1.2 mi Calm Calm - 0.00 in Rain Light Rain
10:15 PM 33.8 °F 29.6 °F 32.0 °F 93% 29.69 in 0.8 mi East 4.6 mph - 0.01 in   Overcast
10:22 PM 33.8 °F 28.6 °F 32.0 °F 93% 29.69 in 1.5 mi East 5.8 mph - 0.01 in   Overcast
10:28 PM 33.8 °F 27.7 °F 32.0 °F 93% 29.69 in 3.0 mi East 6.9 mph - 0.01 in   Overcast
10:53 PM 33.1 °F 26.1 °F 32.0 °F 96% 29.68 in 9.0 mi East 8.1 mph - 0.01 in   Overcast
11:21 PM 33.8 °F 28.6 °F 32.0 °F 93% 29.68 in 10.0 mi East 5.8 mph - N/A   Overcast
11:53 PM 33.1 °F 30.0 °F 33.1 °F 100% 29.71 in 10.0 mi East 3.5 mph - N/A   Overcast